TimeMST,TemperatureF,Dew PointF,Humidity,Sea Level PressureIn,VisibilityMPH,Wind Direction,Wind SpeedMPH,Gust SpeedMPH,PrecipitationIn,Events,Conditions,WindDirDegrees,DateUTC
12:53 AM,41.0,35.1,79,30.10,9.0,Calm,Calm,-,N/A,,Overcast,0,2013-03-10 07:53:00
1:53 AM,39.9,30.9,70,30.12,10.0,WNW,4.6,-,N/A,,Partly Cloudy,300,2013-03-10 08:53:00
2:53 AM,41.0,25.0,53,30.12,10.0,NW,5.8,-,N/A,,Clear,310,2013-03-10 09:53:00
3:53 AM,41.0,24.1,51,30.13,10.0,NW,8.1,-,N/A,,Mostly Cloudy,310,2013-03-10 10:53:00
5:53 AM,39.0,21.0,49,30.18,10.0,WNW,6.9,-,N/A,,Partly Cloudy,300,2013-03-10 12:53:00
6:53 AM,39.0,19.9,46,30.19,10.0,NW,4.6,-,N/A,,Clear,320,2013-03-10 13:53:00
7:53 AM,41.0,21.0,45,30.21,10.0,NW,5.8,-,N/A,,Clear,310,2013-03-10 14:53:00
8:53 AM,43.0,23.0,45,30.22,10.0,NW,6.9,-,N/A,,Clear,310,2013-03-10 15:53:00
9:53 AM,46.0,24.1,42,30.22,10.0,NNW,8.1,-,N/A,,Clear,340,2013-03-10 16:53:00
10:53 AM,46.9,24.1,41,30.23,10.0,Variable,4.6,-,N/A,,Clear,0,2013-03-10 17:53:00
11:53 AM,48.0,25.0,41,30.23,10.0,NW,4.6,-,N/A,,Clear,320,2013-03-10 18:53:00
12:53 PM,50.0,25.0,38,30.21,10.0,West,5.8,-,N/A,,Clear,280,2013-03-10 19:53:00
1:53 PM,52.0,25.0,35,30.18,10.0,Variable,6.9,-,N/A,,Clear,0,2013-03-10 20:53:00
2:53 PM,52.0,24.1,34,30.16,10.0,Calm,Calm,-,N/A,,Clear,0,2013-03-10 21:53:00
3:53 PM,53.1,25.0,34,30.15,10.0,Variable,5.8,-,N/A,,Clear,0,2013-03-10 22:53:00
4:53 PM,53.1,25.0,34,30.14,10.0,SE,3.5,-,N/A,,Clear,130,2013-03-10 23:53:00
5:53 PM,53.1,26.1,35,30.15,10.0,ESE,3.5,-,N/A,,Clear,110,2013-03-11 00:53:00
6:53 PM,50.0,28.4,43,30.19,10.0,East,3.5,-,N/A,,Clear,100,2013-03-11 01:53:00
7:53 PM,48.0,32.0,54,30.18,10.0,Calm,Calm,-,N/A,,Clear,0,2013-03-11 02:53:00
8:53 PM,46.0,32.0,58,30.20,10.0,Calm,Calm,-,N/A,,Clear,0,2013-03-11 03:53:00
9:53 PM,44.6,30.2,57,30.24,6.0,SW,5.8,-,N/A,,Haze,220,2013-03-11 04:53:00
10:53 PM,45.0,30.0,56,30.19,9.0,West,3.5,-,N/A,,Clear,260,2013-03-11 05:53:00
11:53 PM,44.1,28.9,55,30.19,10.0,West,4.6,-,N/A,,Clear,270,2013-03-11 06:53:00